Columbia, MO

9:03 PM CDT on April 27, 2017 (GMT -0500)
Columbia Regional

Weather History for KCOU - June, 2012

Change the Weather History Date:

Tuesday, June 26, 2012

  Actual Average Record
Temperature  
Mean Temperature 75 °F 76 °F  
Max Temperature 92 °F 86 °F 102 °F (1954)
Min Temperature 57 °F 66 °F 50 °F (1974)
Degree Days  
Heating Degree Days 0 0  
Month to date heating degree days 7 9  
Since 1 June heating degree days 7 9  
Since 1 July heating degree days 3793 5021  
Cooling Degree Days 10 11  
Month to date cooling degree days 279 203  
Year to date cooling degree days 564 306  
Since 1 June cooling degree days 279 203  
Growing Degree Days 24 (Base 50)    
Moisture  
Dew Point 50 °F    
Average Humidity 47    
Maximum Humidity 72    
Minimum Humidity 21    
Precipitation  
Precipitation 0.00 in 0.15 in 2.33 in (1995)
Month to date precipitation 1.63 3.89  
Year to date precipitation 18.72 20.44  
Snow  
Snow 0.00 in 0.00 in 0.00 in (2015)
Month to date snowfall 0.0 0.0  
Since 1 June snowfall 0.0 0.0  
Since 1 July snowfall 6.6 18.0  
Snow Depth 0.00 in    
Sea Level Pressure  
Sea Level Pressure 29.92 in    
Wind  
Wind Speed 8 mph (ESE)    
Max Wind Speed 15 mph    
Max Gust Speed 18 mph    
Visibility 10 miles    
Events      
T = Trace of Precipitation, MM = Missing Value Source: NWS Daily Summary

Daily Weather History Graph

Daily Weather History Graph

Search for Another Location

Airport or City:

Trip Planner

Search our weather history database for the weather conditions in past years. The results will help you decide how hot, cold, wet, or windy it might be!

Date:

Astronomy

Jun. 26, 2012 Rise Set
Actual Time 5:45 AM CDT 8:38 PM CDT
Civil Twilight 5:13 AM CDT 9:10 PM CDT
Nautical Twilight 4:33 AM CDT 9:50 PM CDT
Astronomical Twilight 3:47 AM CDT 10:36 PM CDT
Moon 12:57 PM CDT (6/26) 12:10 AM CDT (6/26)
Length of Visible Light 15h 56m
Length of Day
14h 52m
Waxing Crescent, 45% of the Moon is Illuminated
Jun 26
Waxing Crescent
Jun 26
First Quarter
Jul 3
Full
Jul 10
Last Quarter
Jul 18
New

Hourly Weather History & Observations

Time (CDT) Temp. Heat Index Dew Point Humidity Pressure Visibility Wind Dir Wind Speed Gust Speed Precip Events Conditions
12:54 AM 70.0 °F - 46.9 °F 44% 29.94 in 10.0 mi East 8.1 mph - N/A   Clear
1:54 AM 68.0 °F - 46.9 °F 47% 29.94 in 10.0 mi East 8.1 mph - N/A   Clear
2:54 AM 64.9 °F - 46.9 °F 52% 29.94 in 10.0 mi East 9.2 mph - N/A   Clear
3:54 AM 63.0 °F - 46.9 °F 56% 29.94 in 10.0 mi East 9.2 mph - N/A   Clear
4:54 AM 60.1 °F - 46.9 °F 62% 29.95 in 10.0 mi East 6.9 mph - N/A   Clear
5:54 AM 57.9 °F - 48.0 °F 70% 29.96 in 10.0 mi ENE 6.9 mph - N/A   Clear
6:54 AM 60.1 °F - 48.9 °F 67% 29.97 in 10.0 mi East 5.8 mph - N/A   Clear
7:54 AM 64.0 °F - 51.1 °F 63% 29.96 in 10.0 mi ESE 8.1 mph - N/A   Clear
8:54 AM 70.0 °F - 51.1 °F 51% 29.97 in 10.0 mi SE 9.2 mph - N/A   Clear
9:54 AM 75.0 °F - 52.0 °F 44% 29.97 in 10.0 mi ESE 11.5 mph - N/A   Clear
10:54 AM 79.0 °F - 53.1 °F 40% 29.97 in 10.0 mi SE 9.2 mph - N/A   Clear
11:54 AM 82.9 °F 81.8 °F 53.1 °F 36% 29.96 in 10.0 mi Variable 6.9 mph - N/A   Clear
12:54 PM 86.0 °F - 50.0 °F 29% 29.94 in 10.0 mi East 5.8 mph - N/A   Clear
1:54 PM 89.1 °F - 50.0 °F 26% 29.91 in 10.0 mi East 10.4 mph - N/A   Clear
2:54 PM 91.0 °F - 48.9 °F 23% 29.90 in 10.0 mi ESE 9.2 mph - N/A   Clear
3:54 PM 91.0 °F - 48.0 °F 23% 29.88 in 10.0 mi ESE 10.4 mph - N/A   Clear
4:54 PM 91.0 °F - 46.0 °F 21% 29.87 in 10.0 mi ESE 8.1 mph - N/A   Clear
5:54 PM 90.0 °F - 48.9 °F 24% 29.86 in 10.0 mi ESE 10.4 mph 17.3 mph N/A   Clear
6:54 PM 87.1 °F - 52.0 °F 30% 29.85 in 10.0 mi East 8.1 mph - N/A   Clear
7:54 PM 82.9 °F - 52.0 °F 34% 29.85 in 10.0 mi East 8.1 mph - N/A   Clear
8:54 PM 79.0 °F - 52.0 °F 39% 29.84 in 10.0 mi East 8.1 mph - N/A   Clear
9:54 PM 75.9 °F - 51.1 °F 42% 29.86 in 10.0 mi ESE 6.9 mph - N/A   Clear
10:54 PM 73.0 °F - 51.1 °F 46% 29.87 in 10.0 mi ESE 6.9 mph - N/A   Clear
11:54 PM 71.1 °F - 50.0 °F 47% 29.88 in 10.0 mi SE 8.1 mph - N/A   Clear